RH
23 24 24 23 23 22 21 21 21 20 21 20 19 19 18 13 10 16 32 56 65 65 65 66 71 64 63 77 86 85 86 90 88 86 84 86 88 86 80 75 72 58 47 51 62 65 63 59 32 16 17 11
25 24 24 24 23 23 22 21 21 20 21 20 20 20 19 15 12 12 21 43 52 50 57 64 55 42 57 79 84 83 85 90 88 82 82 86 85 84 82 79 73 51 36 41 43 50 56 51 29 13 14 12
26 26 24 23 23 23 22 21 22 21 21 21 21 20 19 17 15 12 11 21 25 26 44 50 30 30 63 82 82 82 84 88 83 77 83 86 82 85 85 81 77 54 37 43 37 36 42 38 26 16 16 14
26 27 26 25 24 23 22 21 22 22 22 22 22 21 20 19 16 15 10 10 10 12 26 28 21 39 68 77 77 80 82 84 79 76 82 82 80 84 81 77 77 58 40 43 40 38 37 27 20 19 20 17
26 27 26 26 26 25 23 23 23 23 23 22 22 21 21 20 18 17 14 10 9 10 15 18 26 43 60 69 71 75 76 76 75 72 75 77 76 74 72 71 64 48 38 38 35 39 42 28 19 20 21 21
27 28 26 26 27 26 24 24 24 23 23 22 22 22 22 21 19 19 17 14 11 11 14 17 26 32 45 64 68 67 68 69 67 63 66 71 70 63 63 64 48 36 36 35 32 34 37 33 28 25 21 23
26 27 26 27 27 27 26 25 24 23 23 22 22 22 22 22 20 20 19 16 14 13 14 15 20 23 32 48 56 57 58 58 54 53 60 63 59 55 52 49 39 37 37 35 35 33 32 35 37 35 29 26
25 26 26 28 28 28 27 26 25 24 24 23 23 23 22 22 21 21 21 18 16 14 14 15 17 21 24 30 38 46 50 47 43 46 51 48 45 44 41 38 37 38 38 37 38 35 35 38 39 40 38 34
24 25 27 29 30 29 29 27 26 25 25 24 24 24 23 23 22 22 22 20 18 15 14 16 17 19 22 25 32 39 43 41 39 42 43 40 38 38 38 39 39 38 38 39 39 37 38 40 40 41 41 41
24 25 27 29 30 30 29 28 27 26 25 25 25 25 25 24 24 23 22 22 20 16 14 16 17 18 21 24 28 31 39 43 43 43 42 40 38 39 40 39 39 39 39 39 39 39 39 40 41 41 42 42
25 26 28 29 30 30 29 28 27 27 26 26 26 26 26 26 25 24 24 23 22 18 15 16 17 18 20 23 25 27 37 44 45 45 43 41 39 40 41 40 40 39 39 40 40 39 39 40 41 41 42 43
25 26 28 29 31 30 30 29 27 27 27 27 28 27 27 27 26 25 25 24 23 20 17 17 18 19 19 21 23 26 34 43 46 46 45 42 41 40 40 40 40 40 40 41 41 39 40 41 42 42 42 43
25 26 28 30 31 31 30 30 28 27 28 28 28 28 28 28 27 26 26 25 25 22 19 18 18 19 18 19 21 25 32 43 48 47 45 43 42 41 40 41 40 39 39 40 42 42 42 43 43 43 43 44
25 26 28 30 30 31 31 30 29 29 29 29 29 29 28 29 28 27 27 27 26 24 22 19 17 18 19 20 21 25 30 38 44 43 43 44 44 43 41 41 39 39 41 43 44 44 44 44 44 43 44 44
25 26 28 29 30 31 31 30 30 30 30 30 30 30 30 30 29 28 28 27 27 26 24 21 18 18 20 22 23 28 30 32 36 38 41 42 43 44 43 41 40 42 45 44 43 43 44 44 44 44 44 44
25 27 27 29 30 30 31 31 31 31 30 31 31 31 31 31 30 29 29 28 28 27 25 23 19 19 21 22 24 27 29 30 33 36 39 40 42 42 42 41 43 45 44 42 43 44 44 44 43 44 45 45
25 26 27 28 29 30 31 31 31 31 31 31 31 32 32 31 31 30 30 30 29 28 27 25 22 20 20 19 22 26 30 33 35 38 39 39 41 41 42 44 44 43 42 43 45 44 44 44 44 46 47 45
25 26 28 28 29 30 30 31 31 31 31 31 32 32 32 32 32 31 31 30 30 30 29 27 25 22 19 18 22 27 32 36 38 41 42 41 42 43 44 44 43 43 45 45 45 45 45 45 45 45 45 45
26 27 28 29 30 30 30 31 31 31 32 32 32 33 33 34 33 32 32 31 31 31 30 29 27 24 21 19 24 31 34 38 42 45 45 44 45 46 44 44 45 46 46 47 47 47 46 45 45 45 44 44
28 29 30 30 31 31 31 30 30 31 31 32 33 33 34 34 34 33 32 32 32 32 31 30 28 27 23 21 27 34 38 41 44 45 46 45 46 46 45 45 46 46 47 47 47 47 47 47 47 45 44 41
29 29 31 32 32 32 32 31 30 30 30 31 32 33 33 34 34 34 33 33 32 32 32 31 29 28 25 24 29 36 40 41 42 44 46 45 45 46 46 45 45 46 47 46 47 48 48 48 46 45 43 41
30 29 30 32 34 34 33 32 31 31 30 30 31 32 33 34 34 34 33 33 33 33 32 32 31 29 28 26 29 35 37 38 39 42 44 44 44 45 45 46 46 46 46 46 49 51 50 47 46 46 45 42
31 31 30 31 32 33 33 33 32 32 32 31 32 32 32 33 33 33 34 33 33 33 32 32 32 30 29 28 30 35 36 36 39 41 43 46 46 45 45 46 47 46 46 49 52 53 50 47 47 48 46 42
32 33 33 32 32 32 33 32 33 33 33 33 33 33 32 32 32 32 33 34 33 33 33 33 33 32 31 29 32 35 36 34 36 39 42 45 47 47 46 47 48 48 50 52 54 51 48 48 49 48 42 39
35 35 35 35 34 33 32 32 33 33 33 34 33 32 32 31 31 31 32 32 33 33 34 33 33 34 33 31 33 35 34 34 36 40 44 46 49 49 50 50 49 50 53 55 56 54 51 50 47 42 38 35
37 37 37 38 38 35 33 33 34 35 35 34 33 32 32 31 30 30 31 31 33 33 33 34 34 34 34 33 33 35 35 37 40 42 45 48 51 51 51 51 50 50 53 57 58 56 57 55 46 38 34 33
38 38 38 39 39 37 36 36 36 37 37 36 35 34 33 33 31 30 31 31 32 33 33 34 35 35 35 35 35 37 38 40 42 43 44 47 51 53 53 52 52 53 55 56 54 55 64 66 57 50 42 40
39 39 39 39 38 38 37 37 37 37 37 37 37 37 36 36 34 32 32 31 32 32 33 34 35 36 36 37 37 38 41 42 42 43 44 46 50 54 56 56 55 54 54 53 53 61 71 69 63 62 55 49
41 41 41 40 39 39 39 38 38 38 36 36 37 38 38 38 37 35 33 32 31 31 32 33 35 37 37 38 39 39 42 43 44 45 45 46 50 53 55 56 56 55 52 50 50 56 63 61 66 71 60 52
44 44 42 42 41 40 40 40 40 39 38 36 37 38 38 38 37 36 35 33 32 30 31 32 34 37 38 39 40 41 43 44 46 47 46 46 49 51 52 54 57 56 52 49 47 48 52 52 59 65 58 58
44 45 45 45 44 43 42 41 41 41 40 38 38 38 38 39 37 36 36 34 33 31 31 32 33 35 37 38 39 41 44 46 46 46 45 46 48 50 51 52 57 57 53 51 48 48 50 50 49 51 54 61
Wind_Speed
7 7 7 7 8 8 9 10 11 12 12 13 14 15 16 17 16 13 11 9 8 9 10 11 11 11 12 12 11 11 11 11 11 11 12 12 11 13 14 15 16 15 15 15 16 17 17 18 20 21 22 23
9 9 8 9 10 9 10 10 11 12 12 13 14 15 15 17 17 15 12 9 8 9 9 10 11 11 11 12 11 11 11 11 11 11 12 11 11 12 13 14 15 15 14 15 16 17 17 17 20 21 22 22
11 11 10 9 11 11 11 11 11 11 12 13 14 14 15 16 17 16 15 12 11 10 8 10 11 11 11 12 12 11 11 11 11 11 12 11 11 11 12 13 13 14 15 15 17 17 18 19 20 21 22 22
14 14 13 11 12 11 11 12 12 12 12 13 13 14 14 16 16 17 17 15 15 13 11 12 12 11 11 12 12 12 11 11 11 11 12 12 11 11 12 12 12 14 16 16 17 18 19 20 21 20 22 23
16 16 15 14 14 13 12 12 12 12 13 13 14 14 14 15 16 16 16 16 16 16 14 15 13 11 11 12 12 11 11 11 11 11 12 11 10 11 12 11 12 16 17 17 18 18 19 21 21 20 21 22
18 18 17 16 15 14 13 13 13 13 13 14 15 15 15 15 16 16 15 16 16 16 16 15 13 12 10 11 11 11 10 10 10 11 12 10 10 11 12 12 16 18 19 20 20 19 20 22 22 22 22 21
21 21 19 17 16 15 13 13 14 14 14 14 15 16 16 15 16 16 15 15 15 15 15 14 14 12 10 9 9 9 9 9 10 11 10 9 10 12 12 14 17 18 19 21 20 21 22 22 24 25 24 23
23 22 20 18 17 16 15 15 15 15 14 14 15 16 16 15 16 16 15 15 14 14 14 14 14 13 11 9 8 8 10 12 12 11 10 11 12 13 13 14 16 17 19 20 20 22 22 22 24 25 25 25
23 22 21 19 18 17 17 17 17 16 16 16 16 17 16 16 16 16 15 14 14 14 14 14 14 14 13 10 9 9 11 14 13 11 12 14 14 13 13 13 15 16 18 18 20 21 21 22 24 25 25 25
24 23 22 21 20 19 19 19 19 18 17 17 17 18 18 17 17 17 16 15 14 14 13 13 14 14 14 12 11 10 12 13 12 12 13 14 14 13 13 14 14 15 16 17 19 19 19 22 23 24 24 25
24 24 24 23 21 21 21 21 20 20 19 19 19 19 19 18 18 18 17 16 15 15 14 13 13 13 14 14 14 11 11 12 12 13 15 14 14 13 14 15 15 15 15 17 17 19 20 21 22 23 23 24
25 25 24 23 22 23 23 22 22 22 22 21 21 20 19 19 20 19 18 17 16 16 15 14 13 13 14 14 14 12 10 11 13 14 15 15 15 14 16 16 17 17 17 18 18 20 20 20 20 22 23 23
25 25 24 24 24 24 24 24 24 24 23 23 22 22 21 21 21 20 20 19 18 17 16 15 14 14 14 14 14 13 11 11 12 14 16 16 17 17 18 19 19 19 19 19 18 18 18 19 20 21 22 22
26 25 25 25 25 25 25 25 25 25 25 24 24 23 22 22 22 21 21 20 19 19 18 17 16 16 15 15 14 13 13 13 15 16 17 17 19 20 20 21 21 19 17 17 18 18 18 20 20 20 20 22
26 26 26 26 26 26 26 26 26 26 26 25 25 25 23 23 23 23 22 22 21 21 20 19 18 17 16 16 14 13 15 15 16 17 18 20 20 21 22 22 20 17 17 19 20 19 19 19 19 20 21 22
26 27 27 26 26 26 26 26 26 26 27 26 26 25 24 24 24 24 24 23 23 23 22 20 19 18 17 17 16 15 16 16 17 17 19 21 21 22 22 21 18 18 20 21 21 20 19 20 20 21 21 22
25 26 26 26 27 27 27 26 26 27 27 27 27 26 26 25 25 25 26 25 25 24 23 22 21 20 19 19 18 16 16 16 17 18 20 22 22 23 20 19 21 22 22 22 22 22 22 21 21 22 22 23
24 25 25 26 27 27 27 26 27 28 28 28 27 27 26 26 26 27 27 27 26 25 24 24 23 22 21 20 18 17 17 17 18 19 21 22 22 21 20 22 23 23 23 23 23 23 23 23 23 23 23 23
22 24 24 25 26 26 27 26 27 27 27 28 27 27 27 27 27 28 28 28 27 26 26 25 25 24 23 21 19 18 17 18 20 21 22 22 22 22 23 24 23 23 24 24 24 24 24 23 23 23 23 24
21 23 24 24 25 25 26 25 26 26 27 27 27 27 27 27 27 28 28 28 28 27 27 26 27 26 25 22 20 19 18 19 21 22 23 23 23 24 24 23 24 24 23 23 24 25 24 24 24 24 25 26
19 21 22 23 23 23 24 25 25 25 26 26 27 27 28 28 28 29 29 29 29 28 28 28 28 28 26 23 21 20 20 21 23 23 24 25 24 24 24 24 25 24 23 23 25 25 26 26 25 25 24 24
18 19 20 21 21 21 22 23 24 25 25 26 27 28 29 29 29 30 30 30 30 30 30 29 29 29 27 25 22 22 23 23 25 25 25 26 26 24 24 25 25 25 25 24 25 26 27 27 24 24 24 24
18 18 19 20 20 20 21 22 23 24 26 27 27 28 29 30 30 31 31 31 31 31 31 31 30 30 28 26 24 23 24 25 26 26 26 26 26 25 24 25 26 26 25 24 25 26 27 26 24 24 24 24
18 18 19 19 20 20 21 21 23 24 25 26 27 28 29 30 31 31 31 32 32 32 32 32 31 31 29 27 25 25 25 26 27 27 27 27 26 26 25 25 25 25 24 24 26 27 27 24 23 24 25 23
18 19 19 20 20 21 21 22 22 23 25 25 26 27 28 29 30 31 31 32 32 32 32 32 32 31 30 29 27 27 28 27 27 26 27 26 25 25 24 25 25 23 21 21 20 21 21 22 24 23 21 20
16 16 18 19 20 21 22 22 22 24 25 25 24 25 26 28 29 30 31 31 32 33 33 33 32 32 32 30 29 29 28 28 27 27 27 26 25 25 24 25 25 23 19 15 13 11 11 16 19 15 11 13
15 15 17 17 18 19 20 22 23 24 25 25 25 26 27 28 28 29 30 31 32 33 34 33 33 33 33 32 30 30 29 29 28 28 28 27 26 26 25 26 26 25 21 17 14 10 7 6 8 6 4 6
17 18 19 19 19 19 19 20 20 21 22 22 24 25 26 27 28 29 30 32 32 33 34 35 34 34 33 32 32 31 31 30 30 29 29 28 27 26 24 24 25 25 23 21 16 6 3 2 3 3 2 4
19 20 21 21 21 21 21 21 21 21 21 21 21 22 23 25 27 29 31 32 33 35 36 36 36 35 34 33 32 32 32 32 31 30 29 29 28 27 26 24 24 24 23 23 22 14 7 2 1 3 3 5
20 21 21 21 22 23 23 23 23 24 24 23 22 21 21 22 24 27 30 32 33 35 36 37 36 35 35 34 33 33 32 32 31 30 30 29 29 29 29 27 24 25 26 24 25 24 21 16 9 5 4 3
20 21 21 21 22 22 23 24 26 27 27 26 24 22 21 20 20 23 26 28 31 33 35 36 36 36 36 35 35 34 32 32 32 32 31 30 30 30 29 27 25 26 27 24 23 25 27 27 23 16 9 4
Wind_Direction
295 305 321 338 345 351 2 11 13 18 20 21 22 21 18 15 15 14 12 2 346 340 335 335 332 330 333 336 337 336 338 340 340 341 343 345 346 346 344 345 343 340 340 342 345 346 348 344 339 339 337 337
285 293 306 321 329 332 343 355 358 5 10 11 14 16 15 13 14 14 14 4 340 332 329 327 322 327 332 330 330 332 335 338 338 337 338 339 339 341 340 342 340 339 342 340 340 340 342 339 335 337 337 337
276 282 292 304 315 317 326 339 343 351 359 2 6 7 8 10 10 10 11 2 343 338 330 321 323 334 333 325 324 324 329 332 333 333 335 333 330 334 335 337 333 333 342 341 338 337 335 332 331 335 336 338
270 277 283 290 300 304 313 325 332 340 347 351 355 356 359 3 3 6 8 2 354 353 344 334 339 344 331 323 320 318 322 323 325 329 330 326 326 327 327 333 325 323 333 337 336 335 331 327 328 333 335 338
265 271 276 282 290 295 304 317 325 330 336 339 342 345 349 352 355 0 3 1 358 358 351 345 346 341 328 323 319 315 315 314 318 325 324 319 322 325 324 323 315 317 325 330 333 333 329 325 329 332 333 335
260 265 271 278 284 290 299 309 314 317 323 328 332 334 337 340 346 352 354 356 358 357 351 343 339 334 327 322 319 316 313 311 315 321 322 316 315 323 320 307 306 315 322 325 329 329 327 326 329 331 331 331
258 262 267 273 280 284 290 297 300 304 310 317 321 322 326 330 336 341 343 349 354 353 346 339 335 332 328 318 314 315 309 302 307 316 314 305 307 313 306 297 304 313 318 321 324 327 327 327 328 328 328 329
256 261 266 270 276 277 279 284 289 295 298 305 308 310 317 319 325 330 331 341 346 344 341 338 334 331 329 318 308 305 295 290 299 307 294 289 297 302 299 297 303 308 312 316 319 323 324 323 323 323 324 325
256 260 263 268 271 270 272 278 282 286 287 294 299 302 307 309 315 318 320 330 335 337 337 334 332 330 327 318 305 293 284 286 293 294 282 285 292 295 296 295 297 302 308 311 313 317 318 317 317 317 318 320
257 259 262 267 269 267 269 275 277 278 281 289 293 294 299 300 306 308 311 319 322 329 330 328 328 326 323 315 306 293 282 285 288 284 281 285 290 291 289 287 290 295 299 302 304 308 309 309 309 310 312 315
256 259 263 268 268 266 270 274 274 275 279 285 287 288 292 293 298 301 304 308 311 319 321 320 322 319 318 312 307 300 283 280 279 278 280 283 285 283 280 280 281 283 287 290 292 295 298 300 302 304 307 309
259 262 265 268 267 268 272 273 273 275 279 282 282 284 287 288 292 296 297 300 303 310 312 312 313 311 312 309 307 304 288 279 278 276 277 280 278 275 276 277 277 279 280 280 283 288 292 294 296 299 301 303
262 264 266 268 267 270 274 273 275 277 278 279 279 281 283 284 288 291 292 293 297 302 306 307 306 304 306 308 308 304 293 283 278 276 277 279 275 273 277 277 279 281 280 280 283 287 290 290 292 295 297 298
264 266 267 270 271 274 275 274 276 276 277 279 278 280 281 282 286 287 287 289 291 296 300 302 302 301 302 304 304 298 290 279 273 274 277 278 276 277 279 280 284 287 286 285 286 287 287 287 291 294 294 295
266 268 271 274 275 275 276 277 277 276 277 278 278 280 280 281 284 283 284 285 287 291 295 298 298 297 297 297 297 289 282 276 272 272 272 274 276 279 281 283 287 290 288 287 286 286 286 287 290 291 290 292
269 272 275 277 277 276 278 278 276 276 277 277 278 279 279 280 281 281 282 282 284 288 290 292 293 293 292 294 293 287 281 277 274 271 271 272 274 278 282 285 285 284 284 285 285 284 283 286 288 287 287 288
273 275 277 278 279 280 280 277 276 276 277 278 279 279 279 280 280 279 280 280 282 285 287 289 290 291 291 293 294 289 284 279 275 272 271 272 274 277 279 279 280 281 281 281 282 282 281 284 286 286 285 287
276 278 278 279 280 281 280 278 277 278 278 279 278 278 279 279 279 279 279 280 281 283 285 287 288 290 291 294 292 288 282 276 273 270 269 272 273 272 272 275 278 280 280 280 281 281 282 283 285 286 287 287
284 283 282 282 283 282 281 279 279 279 279 279 279 279 279 279 279 279 279 280 281 282 283 284 287 288 291 293 288 283 279 271 267 265 265 267 267 269 272 275 276 277 279 280 281 282 284 285 286 286 286 284
296 292 288 287 286 286 284 281 280 281 282 281 281 280 279 280 280 279 280 280 279 280 280 282 284 286 289 289 284 280 275 266 263 262 263 264 265 269 273 274 275 275 277 279 281 284 285 285 286 285 283 283
306 302 297 291 290 290 287 285 284 285 285 284 283 282 282 281 280 280 280 280 278 277 278 280 282 285 286 286 282 277 272 266 263 262 263 265 266 268 271 273 274 274 275 278 282 283 284 285 286 286 284 286
315 313 307 297 293 292 289 287 287 288 287 286 285 284 284 283 282 281 280 279 278 276 277 278 280 282 283 283 279 275 272 269 267 265 265 267 268 268 269 270 271 273 276 280 283 284 285 287 288 288 288 289
324 322 318 307 299 294 292 291 291 291 289 289 288 286 286 285 283 281 279 278 277 275 275 276 277 279 280 280 277 273 272 271 269 267 266 267 269 271 269 267 269 274 278 281 282 283 285 288 287 287 288 287
334 332 328 321 310 302 299 298 296 294 292 291 290 290 289 287 284 282 279 277 275 273 273 274 275 276 277 277 274 271 269 270 270 269 269 268 270 272 272 269 269 272 275 279 282 283 284 285 286 286 285 284
343 337 333 328 320 312 307 304 302 299 297 295 294 293 291 288 285 282 280 278 275 273 273 273 274 274 275 275 272 270 271 272 271 270 269 269 269 269 270 270 268 266 272 280 284 287 288 290 290 289 285 279
343 335 332 328 323 318 312 308 307 306 304 300 297 295 293 290 286 281 279 277 275 273 273 272 273 274 274 274 272 271 271 270 268 267 266 266 266 265 264 266 267 266 267 269 273 286 300 303 301 297 285 274
342 333 332 327 324 321 312 308 307 306 304 301 296 295 295 293 288 283 279 277 275 272 272 271 271 273 273 273 271 269 268 265 263 263 263 261 261 262 263 264 265 263 260 256 262 281 288 296 318 323 302 280
339 334 332 327 322 320 312 308 308 307 307 307 303 301 299 297 294 289 285 283 279 275 274 272 271 271 271 271 270 268 265 263 260 259 259 258 256 256 259 262 263 261 256 251 249 260 270 269 318 290 302 329
335 333 331 326 320 316 312 309 309 308 311 316 315 311 309 307 303 297 291 287 283 279 276 273 270 269 268 269 268 266 263 261 260 258 256 255 252 250 250 255 263 263 257 249 240 234 231 253 295 241 298 340
330 327 326 323 317 312 309 305 306 307 307 309 311 311 310 310 309 303 295 288 282 278 275 272 270 269 267 267 266 264 262 259 258 257 255 253 251 249 248 250 258 261 257 252 246 242 239 241 245 256 313 349
325 321 318 316 311 307 302 296 298 302 301 299 299 299 299 300 305 306 301 293 284 278 275 272 269 268 266 265 264 262 259 257 256 256 255 254 251 250 249 246 247 254 255 253 250 247 243 243 247 252 258 252